Weather in Lychentsy

Russia / Yaroslavl Oblast     56°57′23″N   38°48′44″E
temp.,
°C
wind,
m/s
gust,
m/s
humid.,
%
clouds,
%
prec.,
mm/h
press.,
hPa
HPBL,
m
8 august, mon
mon800:00+15nnw249997 0.3 1020197
03:00+14n2599100 0.4 1021261
06:00+15nne2499100 0.2 1021265
09:00+16ne2397100 0.6 1022338
12:00+16nne3491100 0.1 1022440
15:00+17n338291 0.1 1023375
18:00+17nne2381100 0.0 1022365
21:00+13nne239741 0.0 102254
9 august, tue
tue900:00+12nne2797100 0.0 1023147
03:00+12nne2697100 0.0 1022147
06:00+13nne2794100 0.4 1022215
09:00+16nne2583100 0.6 1022391
12:00+16ne1490100 1.4 1022308
15:00+17ene1485100 1.7 1022334
18:00+18ene24748 0.0 1021452
21:00+14n22935 0.0 102125
10 august, wed
wed1000:00+12n28900 0.0 1022160
03:00+11n259365 0.0 102299
06:00+11n27895 0.0 1022147
09:00+18n35606 0.0 1022631
12:00+22n344567 0.0 10222179
15:00+22nnw444067 0.1 10212238
18:00+19n46470 0.0 10231315
21:00+13n23680 0.0 102347
11 august, thu
thu1100:00+11n22784 0.0 102432
03:00+10nnw22810 0.0 102527
06:00+11nnw23780 0.0 102669
09:00+18nnw23515 0.0 1026538
12:00+22nw12370 0.0 10251716
15:00+23wnw22344 0.0 10241940
18:00+21wnw244817 0.0 1024256
21:00+14sw226780 0.0 102411
12 august, fri
fri1200:00+13sw227171 0.0 102441
03:00+12wsw267491 0.0 102491
06:00+13wsw277492 0.0 1025147
09:00+19w35577 0.0 1025385
12:00+24w454175 0.0 10241291
15:00+25w453699 0.0 10231537
18:00+23wsw255019 0.0 1022305
21:00+17w226597 0.0 102330